Waarnemingen

Advertentie
Mijn weer
Freiburg, Duitsland (10803): temperatuur & dauwpunt: 22.05.2018 12:00:00 - 28.05.2018 12:00:00 (CEST)Freiburg, Duitsland (10803): temperatuur 5cm & temperatuur -5cm: 22.05.2018 12:00:00 - 28.05.2018 12:00:00 (CEST)Freiburg, Duitsland (10803): temperatuur -20cm & temperatuur -100cm: 22.05.2018 12:00:00 - 28.05.2018 12:00:00 (CEST)Freiburg, Duitsland (10803): windsnelheid & windstoten: 22.05.2018 12:00:00 - 28.05.2018 12:00:00 (CEST)Freiburg, Duitsland (10803): windrichting: 22.05.2018 12:00:00 - 28.05.2018 12:00:00 (CEST)Freiburg, Duitsland (10803): luchtdruk: 22.05.2018 12:00:00 - 28.05.2018 12:00:00 (CEST)Freiburg, Duitsland (10803): zicht: 22.05.2018 12:00:00 - 28.05.2018 12:00:00 (CEST)Freiburg, Duitsland (10803): Zonneschijnduur: 22.05.2018 12:00:00 - 28.05.2018 12:00:00 (CEST)Freiburg, Duitsland (10803): neerslag: 22.05.2018 12:00:00 - 28.05.2018 12:00:00 (CEST)
Datum & Tijd tt [°C] td [°C] tt 5cm [°C] tt -5cm [°C] tt -20cm [°C] tt -100cm [°C] ff [km/u] ff [kn] fx [km/u] fx [kn] dd ppp [hPa] vv [km] sd [min] rr [mm]
28.05.2018 12:00:00 - - - - - - - - - - - - - - -
28.05.2018 11:00:00 22,7 16,2 31,5 27,5 21,0 16,0 5 3 10 5 NNW 1015,9 40 60 0,0
28.05.2018 10:00:00 21,8 16,0 25,1 26,0 20,6 16,0 4 2 12 7 ZZO 1016,6 34 59 0,0
28.05.2018 09:00:00 20,3 15,1 24,1 22,8 20,4 16,0 4 2 13 7 W 1017,0 35 60 0,0
28.05.2018 08:00:00 18,1 15,5 19,2 18,5 20,6 16,0 5 3 29 16 ZZW 1016,8 32 7 0,0
28.05.2018 07:00:00 17,3 15,5 16,9 17,8 20,9 15,9 22 12 33 18 ZW 1016,2 29 9 0,0
28.05.2018 06:00:00 16,5 14,5 14,9 18,0 21,3 15,9 4 2 7 4 NO 1015,3 38 0 0,0
28.05.2018 05:00:00 18,5 14,4 17,0 18,7 21,6 15,9 3 2 11 6 ONO 1016,2 41 0 0,0
28.05.2018 04:00:00 18,9 14,1 18,0 19,2 21,9 15,9 5 3 9 5 NNO 1017,3 48 0 0,0
28.05.2018 03:00:00 19,9 13,9 18,3 19,5 22,3 15,9 6 3 29 15 ZW 1017,2 60 0 0,0
28.05.2018 02:00:00 20,5 13,6 19,3 19,6 22,7 15,9 18 10 33 18 Z 1017,1 52 0 0,0
28.05.2018 01:00:00 20,0 15,8 19,2 19,9 23,3 15,8 24 13 36 20 ZW 1017,2 29 0 0,0
28.05.2018 00:00:00 18,5 16,1 16,3 20,5 23,8 15,8 2 1 6 3 ZZO 1016,2 28 0 0,0
27.05.2018 23:00:00 18,4 16,2 16,3 21,5 24,4 15,8 0 0 5 3 N 1016,3 29 0 0,0
27.05.2018 22:00:00 20,7 16,0 17,4 23,0 24,9 15,8 3 1 10 5 ZZO 1015,6 34 0 0,0
27.05.2018 21:00:00 22,7 15,8 20,5 24,7 25,3 15,8 9 5 14 8 NNW 1015,0 35 0 0,0
27.05.2018 20:00:00 24,7 16,0 25,0 27,8 25,5 15,8 10 6 20 11 NNW 1014,4 40 58 0,0
27.05.2018 19:00:00 25,9 16,2 29,3 30,0 25,5 15,8 11 6 21 11 NNW 1014,4 33 60 0,0
27.05.2018 18:00:00 27,0 16,2 31,4 31,0 25,3 15,7 8 4 24 13 N 1014,6 44 56 0,0
27.05.2018 17:00:00 26,3 15,4 28,9 31,7 25,1 15,7 17 9 24 13 ZZO 1015,7 28 34 0,0
27.05.2018 16:00:00 25,9 15,9 28,4 32,2 24,8 15,7 10 5 19 11 ZO 1016,1 40 0 0,0
27.05.2018 15:00:00 27,1 14,0 30,1 33,3 24,2 15,7 5 3 21 11 NNO 1016,6 36 4 0,0
27.05.2018 14:00:00 27,6 15,6 34,3 37,2 23,1 15,7 10 6 19 10 NW 1016,7 31 60 0,0
27.05.2018 13:00:00 26,5 16,7 33,9 34,8 22,1 15,7 8 4 14 8 NW 1017,0 30 45 0,0
27.05.2018 12:00:00 25,3 15,4 29,1 32,8 21,0 15,7 6 3 17 9 WZW 1017,8 31 49 0,0
27.05.2018 11:00:00 24,2 17,4 31,4 29,2 20,4 15,6 10 6 20 11 WNW 1018,1 32 47 0,0
27.05.2018 10:00:00 21,7 16,8 26,5 22,9 20,2 15,6 7 4 13 7 NNO 1018,2 24 10 0,0
27.05.2018 09:00:00 20,5 16,3 22,1 20,8 20,1 15,6 5 3 21 11 NNW 1018,4 25 0 0,0
27.05.2018 08:00:00 20,1 15,9 20,7 19,7 20,2 15,6 10 6 18 10 WZW 1018,1 23 21 0,0
27.05.2018 07:00:00 17,5 15,4 18,0 17,9 20,5 15,6 4 2 10 6 WNW 1017,1 22 8 0,0
27.05.2018 06:00:00 17,3 15,3 15,3 17,2 20,9 15,6 5 3 16 8 ONO 1016,7 21 0 0,0
27.05.2018 05:00:00 19,3 14,5 17,1 17,8 21,3 15,6 10 5 12 6 ZO 1016,7 37 0 0,0
27.05.2018 04:00:00 18,2 14,9 15,3 18,6 21,7 15,5 4 2 19 10 ZW 1017,2 40 0 0,0
27.05.2018 03:00:00 22,3 14,6 20,3 19,3 22,1 15,5 19 10 25 13 Z 1017,1 40 0 0,0
27.05.2018 02:00:00 19,4 14,7 17,3 20,2 22,5 15,5 4 2 35 19 NW 1017,4 31 0 0,0
27.05.2018 01:00:00 24,3 13,9 22,9 20,9 23,0 15,5 15 8 27 14 OZO 1017,6 40 0 0,0
27.05.2018 00:00:00 20,3 16,3 18,8 21,6 23,5 15,5 4 2 11 6 ZO 1018,8 33 0 0,0
26.05.2018 23:00:00 20,4 16,7 19,3 22,6 23,9 15,5 3 2 7 4 NNO 1019,0 32 0 0,0
26.05.2018 22:00:00 21,3 17,4 19,9 23,8 24,4 15,5 0 0 6 3 N 1018,7 29 0 0,0
26.05.2018 21:00:00 22,7 17,6 22,1 25,5 24,7 15,5 4 2 6 3 NNO 1018,1 37 0 0,0
26.05.2018 20:00:00 24,6 16,5 24,6 27,4 24,9 15,5 5 3 10 5 N 1017,6 38 25 0,0
26.05.2018 19:00:00 26,2 14,1 27,3 29,6 24,8 15,4 8 4 17 9 N 1017,5 45 33 0,0
26.05.2018 18:00:00 26,9 14,2 30,6 32,4 24,5 15,4 11 6 21 11 N 1017,5 40 55 0,0
26.05.2018 17:00:00 27,3 14,3 32,9 34,6 23,9 15,4 9 5 16 9 N 1017,7 32 59 0,0
26.05.2018 16:00:00 27,5 14,2 30,6 32,3 23,3 15,4 3 2 14 7 WZW 1018,0 39 19 0,0
26.05.2018 15:00:00 26,8 14,5 31,2 33,7 22,5 15,4 8 4 18 10 WZW 1018,2 33 33 0,0
26.05.2018 14:00:00 26,1 16,2 29,8 34,2 21,4 15,4 11 6 18 10 W 1018,4 33 48 0,0
26.05.2018 13:00:00 26,0 15,8 33,6 32,8 20,4 15,4 4 2 15 8 NNW 1018,1 42 60 0,0
26.05.2018 12:00:00 24,1 13,7 30,7 29,8 19,4 15,4 7 4 14 7 W 1018,3 25 60 0,0
26.05.2018 11:00:00 22,7 14,8 28,7 26,4 18,7 15,3 6 4 10 5 NW 1018,1 23 60 0,0
26.05.2018 10:00:00 20,6 14,8 24,9 22,9 18,2 15,3 7 4 12 6 NNW 1018,0 28 60 0,0
26.05.2018 09:00:00 19,6 13,9 22,2 20,0 18,0 15,3 5 3 9 5 N 1018,0 39 60 0,0
26.05.2018 08:00:00 17,2 13,0 18,8 17,0 18,1 15,3 4 2 6 3 NNW 1018,1 30 38 0,0
26.05.2018 07:00:00 13,6 12,9 12,9 14,5 18,5 15,3 4 2 6 3 N 1018,3 15 0 0,0
26.05.2018 06:00:00 13,7 12,9 10,8 14,3 18,8 15,3 0 0 6 3 N 1018,0 20 0 0,0
26.05.2018 05:00:00 14,3 13,0 11,3 14,9 19,2 15,3 3 1 8 4 NO 1017,5 24 0 0,0
26.05.2018 04:00:00 15,8 13,1 12,5 15,4 19,7 15,3 6 3 8 5 W 1017,3 33 0 0,0
26.05.2018 03:00:00 15,8 12,9 13,4 16,1 20,1 15,3 4 2 16 9 NW 1017,1 33 0 0,0
26.05.2018 02:00:00 18,5 13,0 15,2 16,7 20,6 15,3 4 2 12 6 NNW 1016,8 42 0 0,0
26.05.2018 01:00:00 18,5 13,2 15,1 17,2 21,1 15,2 4 2 11 6 NNW 1016,8 40 0 0,0
26.05.2018 00:00:00 17,4 14,2 14,0 17,9 21,6 15,2 4 2 6 4 N 1016,9 30 0 0,0
25.05.2018 23:00:00 17,3 14,5 15,0 19,0 22,1 15,2 6 3 7 4 NNW 1017,0 30 0 0,0
25.05.2018 22:00:00 18,7 14,3 15,6 20,5 22,6 15,2 0 0 8 4 N 1016,6 38 0 0,0
25.05.2018 21:00:00 23,0 13,7 19,1 22,5 22,9 15,2 2 1 17 9 ONO 1016,0 43 21 0,0
25.05.2018 20:00:00 24,4 13,3 25,1 24,5 23,1 15,2 12 7 19 10 NNW 1015,4 49 60 0,0
25.05.2018 19:00:00 25,2 12,5 27,2 26,7 23,1 15,2 15 8 22 12 NNW 1015,1 48 60 0,0
25.05.2018 18:00:00 25,8 13,3 29,2 28,8 22,8 15,2 14 8 26 14 NNW 1015,6 34 60 0,0
25.05.2018 17:00:00 26,2 13,9 31,8 29,8 22,3 15,2 11 6 26 14 NNW 1015,6 43 60 0,0
25.05.2018 16:00:00 25,6 14,1 31,0 29,6 21,8 15,2 13 7 27 14 NNW 1016,0 27 60 0,0
25.05.2018 15:00:00 25,2 13,9 29,3 28,9 21,2 15,1 18 10 28 15 NW 1016,1 28 60 0,0
25.05.2018 14:00:00 25,3 14,4 30,2 29,3 20,4 15,1 10 5 21 11 NNW 1016,2 38 59 0,0
25.05.2018 13:00:00 24,2 13,6 29,6 28,6 19,6 15,1 8 4 21 12 N 1016,7 39 60 0,0
25.05.2018 12:00:00 23,1 14,6 29,5 27,3 18,7 15,1 6 4 16 9 N 1017,3 30 60 0,0
25.05.2018 11:00:00 21,7 14,6 27,7 26,2 17,9 15,1 6 3 12 7 N 1017,6 27 60 0,0
25.05.2018 10:00:00 19,9 13,4 24,6 23,2 17,2 15,1 6 3 10 6 NNO 1018,0 37 60 0,0
25.05.2018 09:00:00 18,1 13,2 22,4 19,9 16,9 15,1 5 3 8 4 N 1017,9 29 60 0,0
25.05.2018 08:00:00 16,2 12,9 17,4 16,3 16,9 15,1 3 2 4 2 WNW 1017,8 27 60 0,0
25.05.2018 07:00:00 13,0 11,4 12,0 12,8 17,3 15,1 2 1 5 3 NNW 1018,0 22 27 0,0
25.05.2018 06:00:00 10,9 10,5 9,3 12,6 17,7 15,1 3 2 5 3 NO 1018,3 23 0 0,0
25.05.2018 05:00:00 11,6 11,2 8,9 13,2 18,1 15,1 0 0 4 2 N 1018,2 16 0 0,0
25.05.2018 04:00:00 11,7 11,4 9,8 13,8 18,6 15,0 3 2 4 2 NW 1018,1 17 0 0,0
25.05.2018 03:00:00 12,4 11,9 10,2 14,4 19,0 15,0 2 1 4 2 N 1018,2 20 0 0,0
25.05.2018 02:00:00 13,4 13,2 11,0 15,1 19,5 15,0 0 0 6 4 N 1018,2 12 0 0,0
25.05.2018 01:00:00 14,1 13,6 12,1 15,9 20,0 15,0 4 2 7 4 W 1018,1 14 0 0,0
25.05.2018 00:00:00 15,2 14,3 13,5 16,7 20,5 15,0 6 3 9 5 NW 1017,9 21 0 0,0
24.05.2018 23:00:00 16,2 14,6 13,7 17,6 21,1 15,0 4 2 5 3 WNW 1017,6 28 0 0,0
24.05.2018 22:00:00 18,6 14,2 14,8 18,8 21,6 15,0 3 2 16 9 ZO 1016,8 37 0 0,0
24.05.2018 21:00:00 20,0 13,3 18,3 20,5 22,0 15,0 12 7 17 9 NNW 1016,0 50 23 0,0
24.05.2018 20:00:00 23,9 11,9 24,0 22,6 22,2 15,0 13 7 22 12 ZW 1015,0 68 60 0,0
24.05.2018 19:00:00 23,7 11,5 24,0 24,2 22,3 15,0 12 6 21 12 W 1014,8 67 52 0,0
24.05.2018 18:00:00 24,9 12,0 26,9 26,5 22,1 15,0 11 6 22 12 WZW 1014,8 41 60 0,0
24.05.2018 17:00:00 24,6 11,7 27,7 27,7 21,7 15,0 15 8 26 14 WZW 1015,0 55 60 0,0
24.05.2018 16:00:00 24,2 11,5 27,9 29,0 21,1 15,0 10 6 29 15 W 1015,4 43 60 0,0
24.05.2018 15:00:00 23,5 13,4 27,5 30,0 20,2 14,9 9 5 22 12 W 1015,9 36 60 0,0
24.05.2018 14:00:00 22,7 13,7 28,2 29,8 19,3 14,9 5 3 14 8 WZW 1016,7 34 58 0,0
24.05.2018 13:00:00 20,5 14,7 23,2 25,9 18,4 14,9 6 3 13 7 WZW 1017,6 35 39 0,0
24.05.2018 12:00:00 19,9 15,0 24,2 25,0 17,8 14,9 3 2 11 6 ZW 1018,1 27 22 0,0
24.05.2018 11:00:00 18,3 15,4 20,9 20,9 17,4 14,9 3 2 8 4 WNW 1018,4 25 1 0,0
24.05.2018 10:00:00 16,8 15,3 17,8 18,4 17,3 14,9 4 2 7 4 NW 1018,7 28 0 0,0
24.05.2018 09:00:00 16,2 13,9 15,5 17,1 17,3 14,9 7 4 9 5 ZO 1018,7 45 0 0,0
24.05.2018 08:00:00 15,2 14,5 15,6 16,3 17,4 14,9 3 1 5 3 NO 1018,3 23 0 0,0
24.05.2018 07:00:00 14,8 14,1 14,9 15,9 17,6 14,9 2 1 5 3 NNW 1018,0 15 0 0,0
24.05.2018 06:00:00 14,7 14,2 14,4 15,8 17,8 14,9 2 1 7 4 ZZO 1017,8 20 0 0,0
24.05.2018 05:00:00 15,3 14,3 14,8 16,1 18,1 14,9 5 3 9 5 ZZW 1017,9 32 0 0,1
24.05.2018 04:00:00 14,9 14,3 14,6 16,3 18,3 14,9 4 2 10 6 NO 1017,9 13 0 2,7
24.05.2018 03:00:00 15,8 13,8 14,7 16,7 18,6 14,9 9 5 17 9 OZO 1018,4 8 0 8,3
24.05.2018 02:00:00 16,3 15,9 16,0 17,4 18,9 14,9 6 3 9 5 O 1018,3 1,3 0 1,2
24.05.2018 01:00:00 16,3 15,5 15,9 17,8 19,2 14,9 5 3 10 6 NNO 1018,1 4,9 0 1,1
24.05.2018 00:00:00 16,5 15,2 15,8 18,2 19,5 14,8 5 3 14 8 ZZW 1017,9 25 0 0,0
23.05.2018 23:00:00 16,6 16,2 16,3 18,9 19,7 14,8 4 2 6 3 ZW 1017,5 11 0 0,0
23.05.2018 22:00:00 17,9 15,6 16,8 19,9 19,9 14,8 3 1 10 5 NNO 1017,2 22 0 0,2
23.05.2018 21:00:00 19,2 15,0 18,8 21,3 20,0 14,8 5 3 12 6 NO 1016,8 37 0 0,0
23.05.2018 20:00:00 20,9 13,5 22,1 23,0 20,0 14,8 6 3 12 6 N 1016,0 48 2 0,0
23.05.2018 19:00:00 20,5 14,0 21,9 23,8 19,8 14,8 9 5 11 6 Z 1015,9 54 11 0,0
23.05.2018 18:00:00 20,9 13,1 22,8 24,5 19,4 14,8 5 3 17 9 N 1015,9 61 20 0,0
23.05.2018 17:00:00 20,9 13,1 27,3 25,9 18,9 14,8 12 6 17 9 N 1015,8 43 49 0,0
23.05.2018 16:00:00 20,3 13,3 26,8 24,1 18,4 14,8 7 4 12 6 NNO 1016,3 54 16 0,0
23.05.2018 15:00:00 19,3 14,2 21,0 23,1 18,1 14,8 7 4 9 5 ZZO 1016,9 50 1 0,0
23.05.2018 14:00:00 19,2 16,2 19,9 21,6 17,7 14,8 4 2 11 6 NO 1017,3 29 0 1,6
23.05.2018 13:00:00 19,6 13,0 23,5 23,6 17,1 14,8 4 2 8 4 N 1017,3 30 3 0,0
23.05.2018 12:00:00 19,0 13,2 22,5 21,6 16,6 14,8 4 2 11 6 Z 1017,4 43 7 0,0
23.05.2018 11:00:00 17,9 14,0 21,4 18,3 16,4 14,8 3 2 8 4 W 1017,4 37 0 0,0
23.05.2018 10:00:00 16,1 13,2 17,6 16,7 16,3 14,8 5 3 8 4 N 1017,6 38 0 0,0
23.05.2018 09:00:00 14,8 12,6 16,1 15,7 16,3 14,8 4 2 7 4 NNO 1017,4 34 0 0,0
23.05.2018 08:00:00 13,4 12,4 13,6 14,6 16,4 14,7 6 3 8 4 NNW 1017,1 28 0 0,0
23.05.2018 07:00:00 11,9 11,5 11,9 13,6 16,7 14,7 2 1 6 3 NW 1016,4 20 0 0,0
23.05.2018 06:00:00 11,2 10,9 8,7 13,2 17,0 14,7 2 1 6 3 Z 1016,1 24 0 0,0
23.05.2018 05:00:00 11,4 11,1 8,6 13,7 17,3 14,7 3 1 5 3 N 1015,9 18 0 0,0
23.05.2018 04:00:00 11,4 10,7 9,4 14,1 17,7 14,7 2 1 5 3 NO 1015,6 30 0 0,0
23.05.2018 03:00:00 12,3 11,6 9,5 14,8 18,0 14,7 0 0 5 3 N 1015,5 26 0 0,0
23.05.2018 02:00:00 13,0 12,1 10,7 15,6 18,3 14,7 2 1 9 5 OZO 1015,5 30 0 0,0
23.05.2018 01:00:00 14,4 12,9 13,4 16,5 18,6 14,7 2 1 6 3 NNO 1015,1 34 0 0,0
23.05.2018 00:00:00 14,2 12,8 13,5 16,7 18,9 14,7 3 2 8 5 WNW 1014,6 35 0 0,0
22.05.2018 23:00:00 14,0 12,5 12,0 17,1 19,3 14,7 3 1 8 4 ZW 1014,3 39 0 0,0
22.05.2018 22:00:00 15,9 13,1 13,3 18,1 19,7 14,7 5 3 9 5 NNO 1013,5 44 0 0,0
22.05.2018 21:00:00 17,1 13,1 15,5 19,4 20,0 14,7 5 3 13 7 NO 1012,5 53 0 0,0
22.05.2018 20:00:00 17,6 12,5 17,3 20,5 20,2 14,7 9 5 18 10 NNO 1011,9 64 0 0,0
22.05.2018 19:00:00 18,0 12,6 18,3 21,9 20,3 14,7 9 5 23 13 NNO 1011,6 56 0 0,0
22.05.2018 18:00:00 19,4 11,6 20,5 24,2 20,1 14,7 9 5 24 13 NNO 1011,2 70 16 0,0
22.05.2018 17:00:00 20,0 11,0 25,9 25,9 19,9 14,7 20 11 40 21 NNO 1011,2 27 40 0,0
22.05.2018 16:00:00 23,4 12,5 27,1 25,8 19,5 14,7 8 4 22 12 ZZO 1010,8 70 3 0,0
22.05.2018 15:00:00 22,5 13,5 28,1 26,7 19,0 14,7 6 4 13 7 NNW 1011,1 40 16 0,0
22.05.2018 14:00:00 22,3 13,8 26,3 25,4 18,4 14,7 6 4 16 9 ZZW 1011,3 39 6 0,0
22.05.2018 13:00:00 21,9 13,0 28,4 28,9 17,5 14,7 7 4 19 10 ZZO 1011,5 35 60 0,0
22.05.2018 12:00:00 21,2 13,3 29,2 26,1 16,6 14,7 9 5 18 10 NW 1011,8 33 59 0,0

tt = temperatuur
td = dauwpunt
tt 5cm = temperatuur 5cm
tt -5cm = temperatuur -5cm
tt -20cm = temperatuur -20cm
tt -100cm = temperatuur -100cm
ff = windsnelheid
fx = windstoten
dd = windrichting
ppp = luchtdruk
vv = zicht
sd = Zonneschijnduur
rr = neerslag

Weerstations in de omgeving